Regional Weather Roundup
Issued by NWS

Home | Current Version | Previous Version | Text Only | Print | Product List | Glossary Off
Versions: 1 2 3 4 5 6 7 8 9 10 11 12 13 14 15 16 17 18 19 20 21 22 23 24 25 26 27 28 29 30 31 32 33 34 35 36 37 38 39 40 41 42 43 44 45 46 47 48 49 50

201
ASUS43 KMKX 240210
RWRWI

WISCONSIN REGIONAL WEATHER ROUNDUP
NATIONAL WEATHER SERVICE MILWAUKEE/SULLIVAN WI
800 PM CST MON JAN 23 2017

NOTE: "FAIR" INDICATES FEW OR NO CLOUDS BELOW 12,000 FEET WITH NO
SIGNIFICANT WEATHER AND/OR OBSTRUCTIONS TO VISIBILITY.

WIZ001-002-006>008-014>016-023>028-240300-
NORTHWEST WISCONSIN

CITY           SKY/WX    TMP DP  RH WIND       PRES   REMARKS
SUPERIOR ARPT  CLOUDY    34  32  92 W3        29.81S
ASHLAND        MOCLDY    33  31  92 CALM      29.81S
HAYWARD        CLOUDY    35  33  92 CALM      29.81R
SIREN          CLOUDY    33  32  97 CALM      29.82F
CUMBERLAND     CLOUDY    32  30  93 W5        29.81S WCI  27
RICE LAKE      CLOUDY    33  32  94 CALM      29.83S
CHETEK         CLOUDY    32  32  99 CALM      29.82S
LADYSMITH      CLOUDY    34  33  96 CALM      29.83R
EAU CLAIRE     CLOUDY    33  33 100 CALM      29.82S FOG
MENOMONIE        N/A    N/A N/A N/A MISG        N/A
NEW RICHMOND   CLOUDY    32  32  99 CALM      29.83S FOG
OSCEOLA        CLOUDY    33  33 100 SW3       29.85F FOG
$$

WIZ003>005-009-010-017-018-240300-
NORTH CENTRAL WISCONSIN

CITY           SKY/WX    TMP DP  RH WIND       PRES   REMARKS
MANITOWISH WTR CLOUDY    33  33 100 NW3       29.77S
ARBOR VITAE    CLOUDY    37  36  96 CALM      29.77S FOG
WOODRUFF       CLOUDY    37  36  96 CALM      29.77S FOG
RHINELANDER    CLOUDY    35  35 100 CALM      29.78R FOG
EAGLE RIVER    CLOUDY    34  34 100 CALM      29.77R FOG
LAND O LAKES   FOG       35  35 100 CALM      29.78S VSB 3/4
PHILLIPS       CLOUDY    33  33 100 CALM      29.78S
TOMAHAWK       CLOUDY    34  33  96 CALM      29.79S FOG
MEDFORD        CLOUDY    33  33  99 NW3       29.78S FOG
MERRILL        CLOUDY    34  34 100 CALM        N/A  FOG
$$

WIZ029-030-035-036-043>047-240300-
CENTRAL WISCONSIN

CITY           SKY/WX    TMP DP  RH WIND       PRES   REMARKS
WAUSAU         CLOUDY    34  34 100 CALM      29.78S FOG
MOSINEE        FOG       34  34 100 NW6       29.80R VSB 1/2 WCI  29
MARSHFIELD     CLOUDY    34  32  92 W5        29.79R FOG     WCI  30
STEVENS POINT  FOG       33  33 100 CALM      29.81S VSB 1
WAUPACA        CLOUDY    38  34  88 CALM      29.81R
WAUTOMA        CLOUDY    36  34  92 NW5       29.82R WCI  32
WISC RAPIDS    CLOUDY    35  35 100 NW5       29.81S WCI  31
CAMP DOUGLAS   CLOUDY    34  34 100 W6        29.81S WCI  29
$$

WIZ011>013-019>022-031-037>040-048>050-240300-
NORTHEAST WISCONSIN

CITY           SKY/WX    TMP DP  RH WIND       PRES   REMARKS
ANTIGO         CLOUDY    34  33  96 NW5       29.78S WCI  30
SHAWANO        CLOUDY    36  34  93 CALM      29.79S
OCONTO         CLOUDY    36  35  99 CALM      29.79S
STURGEON BAY   FOG       34  34 100 CALM      29.79S VSB 1/4
GREEN BAY      CLOUDY    37  36  96 CALM      29.79R
MANITOWOC      CLOUDY    35  33  92 CALM      29.80R
APPLETON       CLOUDY    36  36 100 W9        29.77S WCI  29
CLINTONVILLE   CLOUDY    36  34  93 W6        29.79S WCI  31
OSHKOSH        CLOUDY    36  33  89 W7        29.79S WCI  30
$$

WIZ032>034-041-042-053>061-240300-
SOUTHWEST WISCONSIN

CITY           SKY/WX    TMP DP  RH WIND       PRES   REMARKS
LA CROSSE      CLOUDY    36  33  89 CALM      29.84R
SPARTA         CLOUDY    32  32 100 CALM      29.84S FOG
VIROQUA        CLOUDY    33  33 100 CALM      29.81S
BOSCOBEL       CLOUDY    36  32  85 CALM      29.84S
PRAIRIE DU CHI CLOUDY    34  31  89 CALM      29.83F
PLATTEVILLE    CLOUDY    35  33  94 N6        29.83S WCI  30
$$

WIZ056-057-062-063-064-067-068-240300-
SOUTH CENTRAL WISCONSIN

CITY           SKY/WX    TMP DP  RH WIND       PRES   REMARKS
REEDSBURG      CLOUDY    35  34  99 NW3       29.82S
BARABOO/DELLS  CLOUDY    35  33  93 CALM      29.81S
LONE ROCK      CLOUDY    37  31  78 N5        29.83S WCI  33
MINERAL POINT  CLOUDY    36  34  93 CALM      29.82R
MADISON        CLOUDY    36  33  89 VRB3      29.82R
MIDDLETON      CLOUDY    37  37 100 NW5       29.82S WCI  33
WATERTOWN      CLOUDY    36  36 100 NW5       29.81R FOG     WCI  32
MONROE         CLOUDY    36  32  87 NW5       29.81R WCI  32
JANESVILLE     CLOUDY    39  37  93 NW6       29.81R WCI  35
$$

WIZ051-052-058>065-066-070>072-240300-
SOUTHEAST WISCONSIN

CITY           SKY/WX    TMP DP  RH WIND       PRES   REMARKS
MILWAUKEE      CLOUDY    39  35  86 NW8       29.80R WCI  33
WAUKESHA       CLOUDY    36  34  93 NW3       29.81R FOG
MILWAUKEE/TIMM CLOUDY    37  34  87 W6        29.81R WCI  33
RACINE         CLOUDY    39  34  82 NW9       29.81R WCI  33
KENOSHA        CLOUDY    38  35  89 NW6       29.80R WCI  33
FOND DU LAC    CLOUDY    36  32  85 NW5       29.80R WCI  32
SHEBOYGAN      CLOUDY    36  33  89 W6        29.79R WCI  31
WEST BEND      CLOUDY    36  36 100 NW8       29.80R WCI  29
JUNEAU         CLOUDY    35  34  97 NW5       29.82R FOG     WCI  31
$$

LSZ147-162-240300-
LAKE SUPERIOR

STATION/POSITION TIME  TEMP    WIND        PRES    WAVE
                       AIR SEA DIR/SP/G            HT/PER
                 (UTC) (F)     (DEG/KT/KT) (MB)    (FT/S)
DEVILS ISLAND    0100   34     220/  7/  8 1009.8R
PORT WING        0140   36     230/  4/  7 1009.8R
SAXON HARBOR     0130   33     200/  2/  3 1009.1S
$$

LMZ867-665-643>646-240300-
LAKE MICHIGAN

STATION/POSITION TIME  TEMP    WIND        PRES    WAVE
                       AIR SEA DIR/SP/G            HT/PER
                 (UTC) (F)     (DEG/KT/KT) (MB)    (FT/S)
NORTHPORT PIER   0140   33     320/  4/  5 1008.8S
SISTER BAY       0035   33     360/  6/  7   N/A
KEWAUNEE LAKESHO 0130   36     310/  4/  7 1008.2R
SHEBOYGAN LAKESH 0200   37     300/  6/  7 1009.1R
PORT WASHINGTON  0130   38     320/  3/  6 1010.2R
KENOSHA   LAKESH 0100   39     300/  9/ 13 1008.8
$$

TC  - TEMPERATURE IN CELSIUS
VSB - VISIBILITY IN STATUTE MILES
WCI - WIND CHILL INDEX
HX  - HEAT INDEX





USA.gov is the U.S. government's official web portal to all federal, state and local government web resources and services.